Weather in Ananyev

Ukraine / Odesa District     47°43′11″N   29°57′59″E
temp.,
°C
wind,
m/s
gust,
m/s
humid.,
%
clouds,
%
prec.,
mm/h
press.,
hPa
HPBL,
m
1 march, mon
mon123:000nw4798100 0.1 1024314
02:00+1wnw2499100 1.8 1024185
05:00+1nnw1299100 0.4 102457
08:00+1nne4698100 0.6 1026317
11:00+2nne5884100 0.1 1028738
14:00+2nne5783100 0.1 1030629
17:00+1n579298 0.1 1031507
20:00+1n478799 0.1 1032306
2 march, tue
tue223:00+1nnw3686100 0.1 1033212
02:00+1nw2482100 0.1 103395
05:00+1wnw3689100 0.0 1031194
08:00+1w498260 0.0 1031369
11:00+6w697148 0.0 1029575
14:00+8w7106545 0.0 1027656
17:00+8wnw7126765 0.0 1023679
20:00+6wnw6167432 0.0 1023473
3 march, wed
wed323:00+4nw6157921 0.0 1024578
02:00+4nnw8138125 0.0 1025791
05:00+3n71075100 0.1 1026938
08:00+3nnw6117083 0.1 1028704
11:00+6nnw67600 0.0 10291005
14:00+7nnw56520 0.0 10291121
17:00+7nnw35550 0.0 1028788
20:00+4wnw12660 0.0 102922
4 march, thu
thu423:00+2sw227034 0.0 102822
02:00+1sw337246 0.0 102735
05:00+1ssw34750 0.0 102480
08:00+2ssw59700 0.0 1022297
11:00+8ssw69640 0.0 1019588
14:00+11ssw79590 0.0 1017789
17:00+10sw48640 0.0 1014250
20:00+6wsw34755 0.0 101442
5 march, fri
fri523:00+5wsw22690 0.0 101422
02:00+4wsw22680 0.0 101322
05:00+4sw127014 0.0 101222
08:00+5s23718 0.0 101275
11:00+10ssw465648 0.0 1011422
14:00+13ssw464767 0.0 1009688
17:00+12sw235373 0.0 100837
20:00+8wnw226258 0.0 100922